Regional Weather Roundup
Issued by NWS

Home | Current Version | Previous Version | Graphics & Text | Print | Product List | Glossary On
Versions: 1 2 3 4 5 6 7 8 9 10 11 12 13 14 15 16 17 18 19 20 21 22 23 24 25 26 27 28 29 30 31 32 33 34 35 36 37 38 39 40 41 42 43 44 45 46 47 48 49 50
000
ASUS43 KBIS 231602
RWRND

NORTH DAKOTA REGIONAL WEATHER ROUNDUP
NATIONAL WEATHER SERVICE BISMARCK ND
1100 AM CDT SUN APR 23 2017

NOTE: "FAIR" INDICATES FEW OR NO CLOUDS BELOW 12,000 FEET WITH NO
SIGNIFICANT WEATHER AND/OR OBSTRUCTIONS TO VISIBILITY.


NDZ001>003-009>011-017-231700-
NORTHWEST NORTH DAKOTA

CITY           SKY/WX    TMP DP  RH WIND       PRES   REMARKS
WILLISTON      CLOUDY    31  24  75 SE15      30.01F
MINOT          LGT SNOW  29  26  89 E15       30.10S VSB 3/4 WCI  18
MINOT AFB      MIX PCPN  28  26  91 E16       30.09F FOG     WCI  16
$$

NDZ018>021-031>035-040>046-231700-
SOUTHWEST NORTH DAKOTA

CITY           SKY/WX    TMP DP  RH WIND       PRES   REMARKS
BISMARCK       CLOUDY    37  31  78 E25G31    30.01F
DICKINSON      CLOUDY    30  26  85 E20       29.92F WCI  17
GARRISON         N/A     28  25  88 E20       30.04F WCI  15
HETTINGER ARPT CLOUDY    34  31  88 E15       29.91F
$$

NDZ004>008-012>016-024-026-027-054-231700-
NORTHEAST NORTH DAKOTA

CITY           SKY/WX    TMP DP  RH WIND       PRES   REMARKS
GRAND FORKS    CLOUDY    36  24  62 E16       30.20F
GRND FRKS AFB  LGT RAIN  32  25  74 E13       30.19F
DEVILS LAKE    LGT SNOW  29  26  89 E16G24    30.15F FOG     WCI  17
$$

NDZ022-023-025-028>030-036>039-047>053-231700-
SOUTHEAST NORTH DAKOTA

CITY           SKY/WX    TMP DP  RH WIND       PRES   REMARKS
FARGO          CLOUDY    37  32  82 NE14      30.13F
JAMESTOWN      CLOUDY    32  30  92 E20       30.07F
$$





USA.gov is the U.S. government's official web portal to all federal, state and local government web resources and services.